Hilo, HI

10:25 PM HST on October 17, 2017 (GMT -1000)
Hilo International

Weather History for PHTO - March, 2013

Change the Weather History Date:

Thursday, March 14, 2013

  Actual Average Record
Temperature  
Mean Temperature 72 °F 72 °F  
Max Temperature 79 °F 79 °F 85 °F (1997)
Min Temperature 64 °F 65 °F 56 °F (1954)
Degree Days  
Heating Degree Days 0 0  
Month to date heating degree days 0 0  
Since 1 July heating degree days 0 0  
Cooling Degree Days 7 7  
Month to date cooling degree days 93 95  
Year to date cooling degree days 465 465  
Growing Degree Days 21 (Base 50)    
Moisture  
Dew Point 63 °F    
Average Humidity 76    
Maximum Humidity 93    
Minimum Humidity 58    
Precipitation  
Precipitation T in 0.44 in 2.36 in (1978)
Month to date precipitation 1.55 5.87  
Year to date precipitation 33.05 24.69  
Snow  
Snow 0.00 in - - ()
Month to date snowfall 0.0  
Since 1 July snowfall 0.0  
Snow Depth 0.00 in    
Sea Level Pressure  
Sea Level Pressure 30.03 in    
Wind  
Wind Speed 7 mph (South)    
Max Wind Speed 15 mph    
Max Gust Speed 18 mph    
Visibility 10 miles    
Events Rain    
T = Trace of Precipitation, MM = Missing Value Source: NWS Daily Summary

Daily Weather History Graph

Daily Weather History Graph

Search for Another Location

Airport or City:

Trip Planner

Search our weather history database for the weather conditions in past years. The results will help you decide how hot, cold, wet, or windy it might be!

Date:

Astronomy

Mar. 14, 2013 Rise Set
Actual Time 6:29 AM HST 6:29 PM HST
Civil Twilight 6:07 AM HST 6:51 PM HST
Nautical Twilight 5:41 AM HST 7:17 PM HST
Astronomical Twilight 5:16 AM HST 7:42 PM HST
Moon 8:18 AM HST (3/14) 9:23 PM HST (3/14)
Length of Visible Light 12h 44m
Length of Day
12h 00m
Waxing Crescent, 10% of the Moon is Illuminated
Mar 14
Waxing Crescent
Mar 19
First Quarter
Mar 26
Full
Apr 2
Last Quarter
Apr 9
New

Hourly Weather History & Observations

Time (HST) Temp. Dew Point Humidity Pressure Visibility Wind Dir Wind Speed Gust Speed Precip Events Conditions
12:53 AM 64.9 °F 61.0 °F 87% 30.07 in 10.0 mi SW 4.6 mph - N/A   Overcast
1:53 AM 64.9 °F 62.1 °F 90% 30.04 in 10.0 mi SW 4.6 mph - N/A   Partly Cloudy
2:53 AM 64.9 °F 60.1 °F 84% 30.02 in 10.0 mi SW 3.5 mph - N/A   Partly Cloudy
3:09 AM 64.0 °F 60.1 °F 87% 30.02 in 10.0 mi SW 5.8 mph - N/A   Mostly Cloudy
3:53 AM 64.0 °F 60.1 °F 87% 30.01 in 10.0 mi WSW 5.8 mph - N/A   Overcast
4:53 AM 64.0 °F 59.0 °F 84% 30.02 in 10.0 mi WSW 6.9 mph - N/A   Scattered Clouds
5:15 AM 64.9 °F 59.0 °F 81% 30.03 in 10.0 mi WSW 8.1 mph - N/A   Mostly Cloudy
5:53 AM 64.9 °F 59.0 °F 81% 30.04 in 10.0 mi WSW 6.9 mph - N/A   Overcast
6:53 AM 64.0 °F 57.9 °F 80% 30.07 in 10.0 mi SW 8.1 mph - N/A   Scattered Clouds
7:53 AM 68.0 °F 57.9 °F 70% 30.08 in 6.0 mi WSW 6.9 mph - N/A   Haze
8:53 AM 73.0 °F 60.1 °F 64% 30.09 in 10.0 mi SE 3.5 mph - N/A   Scattered Clouds
9:53 AM 77.0 °F 62.1 °F 60% 30.08 in 10.0 mi Variable 3.5 mph - N/A   Mostly Cloudy
10:53 AM 78.1 °F 63.0 °F 60% 30.05 in 10.0 mi ESE 10.4 mph - N/A   Mostly Cloudy
11:53 AM 78.1 °F 64.0 °F 62% 30.04 in 10.0 mi East 13.8 mph - N/A   Overcast
12:53 PM 78.1 °F 64.9 °F 64% 30.02 in 10.0 mi East 12.7 mph - N/A   Mostly Cloudy
1:40 PM 77.0 °F 64.9 °F 66% 30.01 in 10.0 mi East 10.4 mph - N/A   Overcast
1:53 PM 75.9 °F 64.9 °F 69% 30.01 in 10.0 mi East 10.4 mph - N/A   Overcast
2:04 PM 75.9 °F 64.9 °F 69% 30.01 in 10.0 mi East 10.4 mph - N/A   Overcast
2:53 PM 73.9 °F 64.9 °F 73% 29.98 in 10.0 mi East 12.7 mph - 0.00 in   Overcast
3:53 PM 73.9 °F 66.9 °F 79% 29.98 in 10.0 mi East 12.7 mph - 0.00 in Rain Light Rain
4:53 PM 73.0 °F 66.0 °F 79% 29.99 in 10.0 mi East 5.8 mph - 0.00 in Rain Light Rain
5:53 PM 73.0 °F 68.0 °F 84% 30.00 in 10.0 mi South 3.5 mph - 0.00 in Rain Light Rain
6:07 PM 73.0 °F 68.0 °F 84% 30.01 in 10.0 mi South 5.8 mph - 0.00 in Rain Light Rain
6:38 PM 73.0 °F 68.0 °F 84% 30.01 in 10.0 mi SSW 3.5 mph - 0.00 in   Mostly Cloudy
6:53 PM 73.0 °F 68.0 °F 84% 30.01 in 10.0 mi South 5.8 mph - 0.00 in   Overcast
7:53 PM - - N/A% 30.03 in 10.0 mi SW 5.8 mph - 0.00 in   Overcast
8:53 PM 70.0 °F 68.0 °F 93% 30.03 in 10.0 mi SSW 4.6 mph - 0.00 in   Overcast
9:53 PM 70.0 °F 68.0 °F 93% 30.03 in 10.0 mi Calm Calm - N/A   Overcast
10:43 PM 70.0 °F 66.0 °F 87% 30.02 in 10.0 mi SW 3.5 mph - N/A   Mostly Cloudy
10:53 PM 70.0 °F 66.0 °F 87% 30.02 in 10.0 mi SSW 4.6 mph - N/A   Partly Cloudy
11:53 PM - - N/A% 30.01 in 10.0 mi WSW 4.6 mph - N/A   Mostly Cloudy